Weather History for Jefferson, NC

Change the Weather History Date:

Thursday, February 5, 2009

  Actual Average Record
Temperature  
Mean Temperature 12 °F -  
Max Temperature 21 °F 44 °F 71 °F (2008)
Min Temperature 3 °F 22 °F 3 °F (1980)
Degree Days  
Heating Degree Days 53    
Moisture  
Dew Point -1 °F    
Average Humidity 56    
Maximum Humidity 78    
Minimum Humidity 38    
Precipitation  
Precipitation 0.00 in - - ()
Sea Level Pressure  
Sea Level Pressure 30.27 in    
Wind  
Wind Speed 17 mph (NW)    
Max Wind Speed 26 mph    
Max Gust Speed 44 mph    
Visibility 9 miles    
Events Snow    
Averages and records for this station are not official NWS values.
T = Trace of Precipitation, MM = Missing Value Source: NWS Daily Summary

Daily Weather History Graph

Daily Weather History Graph

Search for Another Location

Airport:

Trip Planner

Search our weather history database for the weather conditions in past years. The results will help you decide how hot, cold, wet, or windy it might be!

Date:

Astronomy

Feb. 05, 2009 Rise Set
Actual Time 7:23 AM EST 5:56 PM EST
Civil Twilight 6:56 AM EST 6:23 PM EST
Nautical Twilight 6:26 AM EST 6:53 PM EST
Astronomical Twilight 5:55 AM EST 7:24 PM EST
Moon 1:28 PM EST (2/5) 3:59 AM EST (2/5)
Length of Visible Light 11h 26m
Length of Day
10h 32m
Waxing Gibbous, 79% of the Moon is Illuminated
Feb 5
Waxing Gibbous
Feb 9
Full
Feb 16
Last Quarter
Feb 24
New
Mar 4
First Quarter

Hourly Weather History & Observations

Time (EST) Temp. Windchill Dew Point Humidity Pressure Visibility Wind Dir Wind Speed Gust Speed Precip Events Conditions
12:01 AM 8.6 °F -12.7 °F -0.4 °F 67% 30.17 in 5.0 mi NW 25.3 mph 43.7 mph N/A   Haze
12:21 AM 8.6 °F -12.7 °F -0.4 °F 67% 30.18 in 2.5 mi NW 25.3 mph 39.1 mph N/A Snow Light Snow
12:41 AM 8.6 °F -13.1 °F 1.4 °F 73% 30.18 in 1.8 mi NW 26.5 mph 33.4 mph N/A Snow Light Snow
1:01 AM 8.6 °F -11.4 °F -0.4 °F 67% 30.18 in 5.0 mi NW 21.9 mph 36.8 mph N/A   Haze
1:21 AM 8.6 °F -12.7 °F -0.4 °F 67% 30.18 in 7.0 mi NW 25.3 mph 34.5 mph N/A   Mostly Cloudy
1:41 AM 8.6 °F -9.5 °F -2.2 °F 62% 30.19 in 10.0 mi NW 17.3 mph 36.8 mph N/A   Scattered Clouds
2:01 AM 8.6 °F -11.9 °F -2.2 °F 62% 30.19 in 10.0 mi NW 23.0 mph 33.4 mph N/A   Clear
2:21 AM 6.8 °F -15.1 °F -2.2 °F 67% 30.19 in 10.0 mi NNW 25.3 mph 36.8 mph N/A   Scattered Clouds
2:41 AM 6.8 °F -14.3 °F -2.2 °F 67% 30.19 in 10.0 mi NW 23.0 mph 34.5 mph N/A   Mostly Cloudy
3:01 AM 6.8 °F -14.7 °F -2.2 °F 67% 30.19 in 7.0 mi NW 24.2 mph 34.5 mph N/A   Overcast
3:21 AM 6.8 °F -13.8 °F -2.2 °F 67% 30.19 in 10.0 mi NW 21.9 mph 34.5 mph N/A   Overcast
3:41 AM 6.8 °F -14.7 °F -2.2 °F 67% 30.19 in 10.0 mi NW 24.2 mph 33.4 mph N/A   Scattered Clouds
4:01 AM 6.8 °F -13.8 °F -2.2 °F 67% 30.18 in 10.0 mi NW 21.9 mph 31.1 mph N/A   Mostly Cloudy
4:21 AM 5.0 °F -14.7 °F -2.2 °F 72% 30.19 in 7.0 mi NW 18.4 mph 28.8 mph N/A   Overcast
4:41 AM 5.0 °F -15.2 °F -2.2 °F 72% 30.19 in 5.0 mi NW 19.6 mph 28.8 mph N/A   Haze
5:01 AM 5.0 °F -16.2 °F -2.2 °F 72% 30.19 in 5.0 mi NW 21.9 mph 35.7 mph N/A   Haze
5:21 AM 5.0 °F -15.7 °F -2.2 °F 72% 30.20 in 7.0 mi NW 20.7 mph 31.1 mph N/A   Mostly Cloudy
5:41 AM 5.0 °F -15.2 °F -2.2 °F 72% 30.21 in 7.0 mi NW 19.6 mph 34.5 mph N/A   Scattered Clouds
6:01 AM 5.0 °F -15.7 °F -2.2 °F 72% 30.21 in 10.0 mi NW 20.7 mph 27.6 mph N/A   Scattered Clouds
6:22 AM 5.0 °F -13.6 °F -2.2 °F 72% 30.23 in 10.0 mi NW 16.1 mph 29.9 mph N/A   Clear
6:41 AM 5.0 °F -14.2 °F -2.2 °F 72% 30.23 in 7.0 mi WNW 17.3 mph 28.8 mph N/A   Scattered Clouds
7:01 AM 3.2 °F -15.9 °F -2.2 °F 78% 30.23 in 10.0 mi NW 16.1 mph 24.2 mph N/A   Scattered Clouds
7:21 AM 3.2 °F -17.6 °F -2.2 °F 78% 30.24 in 10.0 mi NW 19.6 mph 28.8 mph N/A Snow Light Snow
7:41 AM 5.0 °F -13.0 °F -2.2 °F 72% 30.25 in 10.0 mi NW 15.0 mph 20.7 mph N/A   Clear
8:01 AM 5.0 °F -8.1 °F -2.2 °F 72% 30.27 in 10.0 mi NW 8.1 mph 19.6 mph N/A   Clear
8:21 AM 6.8 °F -3.5 °F -2.2 °F 67% 30.27 in 10.0 mi NW 5.8 mph 21.9 mph N/A   Clear
8:41 AM 8.6 °F -4.7 °F -2.2 °F 62% 30.27 in 10.0 mi NNW 9.2 mph - N/A   Clear
9:01 AM 8.6 °F -3.7 °F -2.2 °F 62% 30.29 in 10.0 mi NNW 8.1 mph - N/A   Clear
9:22 AM 10.4 °F -4.8 °F -0.4 °F 62% 30.30 in 10.0 mi NW 12.7 mph 18.4 mph N/A   Clear
10:01 AM 10.4 °F -5.4 °F -2.2 °F 57% 30.32 in 10.0 mi NW 13.8 mph 21.9 mph N/A   Clear
10:21 AM 10.4 °F -5.4 °F -2.2 °F 57% 30.33 in 10.0 mi NW 13.8 mph 20.7 mph N/A   Clear
10:41 AM 12.2 °F -2.5 °F -0.4 °F 57% 30.34 in 10.0 mi WNW 12.7 mph - N/A   Clear
11:01 AM 12.2 °F 1.7 °F -0.4 °F 57% 30.35 in 10.0 mi NNW 6.9 mph 18.4 mph N/A   Clear
11:21 AM 12.2 °F -1.0 °F -2.2 °F 53% 30.35 in 10.0 mi NNW 10.4 mph - N/A   Clear
11:41 AM 15.8 °F 4.2 °F -0.4 °F 49% 30.35 in 10.0 mi NNW 9.2 mph - N/A   Clear
12:01 PM 15.8 °F 6.1 °F -2.2 °F 45% 30.35 in 10.0 mi NNW 6.9 mph - N/A   Clear
12:21 PM 15.8 °F 8.6 °F -2.2 °F 45% 30.34 in 10.0 mi North 4.6 mph - N/A   Clear
12:41 PM 17.6 °F - -0.4 °F 45% 30.33 in 10.0 mi Calm Calm - N/A   Clear
1:01 PM 17.6 °F 12.3 °F -0.4 °F 45% 30.32 in 10.0 mi NW 3.5 mph - N/A   Clear
1:21 PM 19.4 °F 12.8 °F -0.4 °F 42% 30.31 in 10.0 mi North 4.6 mph - N/A   Clear
1:41 PM 19.4 °F 11.5 °F 1.4 °F 46% 30.31 in 10.0 mi West 5.8 mph - N/A   Clear
2:01 PM 19.4 °F 11.5 °F 1.4 °F 46% 30.31 in 10.0 mi WNW 5.8 mph - N/A   Clear
2:21 PM 21.2 °F 14.9 °F 1.4 °F 42% 30.31 in 10.0 mi West 4.6 mph - N/A   Clear
2:41 PM 21.2 °F 9.5 °F 3.2 °F 46% 30.31 in 10.0 mi West 11.5 mph - N/A   Clear
3:01 PM 21.2 °F 8.9 °F 3.2 °F 46% 30.31 in 5.0 mi West 12.7 mph - N/A   Haze
3:21 PM 21.2 °F 12.6 °F 3.2 °F 46% 30.31 in 10.0 mi West 6.9 mph 16.1 mph N/A   Clear
3:41 PM 21.2 °F 9.5 °F 3.2 °F 46% 30.31 in 10.0 mi West 11.5 mph 16.1 mph N/A   Clear
4:01 PM 21.2 °F 10.9 °F 3.2 °F 46% 30.31 in 10.0 mi West 9.2 mph - N/A   Clear
4:21 PM 21.2 °F 10.1 °F 3.2 °F 46% 30.31 in 10.0 mi West 10.4 mph - N/A   Clear
4:41 PM 21.2 °F 10.9 °F 3.2 °F 46% 30.31 in 10.0 mi West 9.2 mph - N/A   Clear
5:03 PM 21.2 °F 11.7 °F 3.2 °F 46% 30.30 in 10.0 mi West 8.1 mph - N/A   Clear
5:21 PM 21.2 °F 11.7 °F 3.2 °F 46% 30.30 in 10.0 mi West 8.1 mph - N/A   Clear
5:41 PM 21.2 °F 10.9 °F 1.4 °F 42% 30.30 in 10.0 mi West 9.2 mph - N/A   Clear
6:01 PM 19.4 °F 12.8 °F -0.4 °F 42% 30.31 in 10.0 mi West 4.6 mph - N/A   Clear
6:21 PM 19.4 °F 14.3 °F -0.4 °F 42% 30.30 in 10.0 mi West 3.5 mph - N/A   Clear
6:41 PM 19.4 °F 8.6 °F 1.4 °F 46% 30.31 in 10.0 mi West 9.2 mph - N/A   Clear
7:01 PM 19.4 °F 11.5 °F 1.4 °F 46% 30.31 in 10.0 mi WNW 5.8 mph - N/A   Clear
7:21 PM 19.4 °F - -0.4 °F 42% 30.31 in 10.0 mi Calm Calm - N/A   Clear
7:41 PM 19.4 °F - -0.4 °F 42% 30.31 in 10.0 mi Calm Calm - N/A   Clear
8:01 PM 17.6 °F - -0.4 °F 45% 30.31 in 10.0 mi Calm Calm - N/A   Clear
8:21 PM 19.4 °F 14.3 °F -0.4 °F 42% 30.31 in 10.0 mi SSE 3.5 mph - N/A   Clear
9:01 PM 17.6 °F - -2.2 °F 42% 30.31 in 10.0 mi Calm Calm - N/A   Clear
9:21 PM 17.6 °F - -2.2 °F 42% 30.30 in 10.0 mi Calm Calm - N/A   Clear
9:41 PM 17.6 °F - -4.0 °F 38% 30.30 in 10.0 mi Calm Calm - N/A   Clear
10:01 PM 19.4 °F - -5.8 °F 33% 30.30 in 10.0 mi Calm Calm - N/A   Clear
10:21 PM 19.4 °F - -4.0 °F 36% 30.29 in 10.0 mi Calm Calm - N/A   Clear
10:41 PM 17.6 °F - -4.0 °F 38% 30.30 in 10.0 mi Calm Calm - N/A   Clear
11:01 PM 19.4 °F - -5.8 °F 33% 30.30 in 10.0 mi Calm Calm - N/A   Clear
11:21 PM 19.4 °F - -4.0 °F 36% 30.30 in 10.0 mi Calm Calm - N/A   Clear
11:44 PM 17.6 °F - -2.2 °F 42% 30.30 in 10.0 mi Calm Calm - N/A   Clear